GW4941 Weather Reports


time (UTC)temp
F
wind
direction
speed
knots
gust
knots
rain 1hr
in
rain 24hr
in
rain mn
in
humidity
%
barometer
mb
20260510164411 66 299 0.0 2.6 0.00 0.01 0.01 81 1016.4
20260510163910 65 296 0.0 0.0 0.00 0.01 0.01 82 1016.4
20260510163407 65 302 1.7 3.5 0.00 0.01 0.01 83 1016.5
20260510162902 65 272 1.7 1.7 0.00 0.01 0.01 84 1016.3
20260510162400 65 329 1.7 1.7 0.00 0.01 0.01 84 1016.3
20260510161855 64 338 0.0 0.0 0.00 0.01 0.01 90 1016.4
20260510161351 63 338 0.0 0.0 0.00 0.01 0.01 91 1016.6
20260510160848 62 338 0.0 0.0 0.00 0.01 0.01 90 1016.4
20260510160345 63 338 0.0 0.0 0.05 0.01 0.01 90 1016.5
20260510155843 63 338 0.0 0.0 0.05 0.01 0.01 86 1016.2
20260510155341 65 338 0.9 1.7 0.00 0.00 0.00 81 1016.4
20260510154837 66 329 0.9 1.7 0.00 0.00 0.00 72 1016.4
20260510154333 67 318 0.9 2.6 0.00 0.00 0.00 71 1016.5
20260510153827 68 12 0.0 1.7 0.00 0.00 0.00 69 1016.5
20260510153323 68 262 1.7 2.6 0.00 0.00 0.00 67 1016.6
20260510152820 69 100 0.9 3.5 0.00 0.00 0.00 65 1016.4
20260510152318 68 276 0.0 0.9 0.00 0.00 0.00 66 1016.6
20260510151814 68 148 2.6 3.5 0.00 0.00 0.00 64 1016.5
20260510151312 70 121 1.7 3.5 0.00 0.00 0.00 62 1016.5
20260510150807 69 225 0.9 6.1 0.00 0.00 0.00 66 1015.8
20260510150303 68 209 1.7 3.5 0.00 0.00 0.00 67 1015.9
20260510145759 68 157 1.7 2.6 0.00 0.00 0.00 66 1015.9
20260510145256 68 200 2.6 3.5 0.00 0.00 0.00 64 1015.9
20260510144753 67 313 0.0 3.5 0.00 0.00 0.00 66 1015.9
20260510144249 67 16 0.9 3.5 0.00 0.00 0.00 69 1015.9
20260510143743 67 59 1.7 3.5 0.00 0.00 0.00 67 1015.9
20260510143240 67 99 3.5 5.2 0.00 0.00 0.00 67 1015.9
20260510142736 67 222 0.0 1.7 0.00 0.00 0.00 70 1016.0
20260510142233 67 279 4.3 6.1 0.00 0.00 0.00 70 1015.9
20260510141730 66 318 0.9 7.0 0.00 0.00 0.00 70 1016.3
20260510141229 65 131 2.6 7.0 0.00 0.00 0.00 71 1016.0
20260510140726 65 89 4.3 6.1 0.00 0.00 0.00 71 1016.0
20260510140226 65 278 1.7 1.7 0.00 0.00 0.00 73 1015.9
20260510135720 64 255 1.7 1.7 0.00 0.00 0.00 74 1015.7
20260510135216 64 35 0.0 2.6 0.00 0.00 0.00 74 1015.8
20260510134714 64 79 0.0 0.9 0.00 0.00 0.00 74 1015.7
20260510134211 63 210 0.0 0.0 0.00 0.00 0.00 79 1015.7
20260510133707 63 222 1.7 3.5 0.00 0.00 0.00 74 1015.7
20260510133202 64 262 0.0 2.6 0.00 0.00 0.00 74 1015.8
20260510132658 63 36 2.6 2.6 0.00 0.00 0.00 76 1015.9
20260510132155 63 230 1.7 3.5 0.00 0.00 0.00 75 1015.8
20260510131653 62 52 0.0 0.9 0.00 0.00 0.00 79 1015.7
20260510131151 62 51 1.7 2.6 0.00 0.00 0.00 78 1015.6
20260510130647 61 80 0.0 0.0 0.00 0.00 0.00 84 1015.7
20260510130144 61 80 0.0 0.0 0.00 0.00 0.00 84 1015.9
20260510125640 59 80 0.0 0.0 0.00 0.00 0.00 86 1015.8
20260510125136 59 80 0.0 1.7 0.00 0.00 0.00 89 1016.0
20260510124634 57 80 0.9 1.7 0.00 0.00 0.00 96 1015.9
20260510124131 56 49 0.9 2.6 0.00 0.00 0.00 99 1016.0
20260510123626 55 27 0.0 0.9 0.00 0.00 0.00 99 1015.9
20260510123122 53 27 1.7 1.7 0.00 0.00 0.00 99 1016.0
20260510122618 52 27 0.0 0.0 0.00 0.00 0.00 99 1015.7
20260510122114 51 27 0.0 0.0 0.00 0.00 0.00 99 1015.6
20260510121611 50 27 0.0 0.0 0.00 0.00 0.00 99 1015.7
20260510121108 49 27 0.0 0.0 0.00 0.00 0.00 99 1015.6
20260510120607 49 27 0.0 0.0 0.00 0.00 0.00 99 1015.6
20260510115558 48 27 0.0 0.0 0.00 0.00 0.00 99 1015.7
20260510115056 48 27 0.0 0.0 0.00 0.00 0.00 99 1015.4
20260510114552 47 27 0.0 0.0 0.00 0.00 0.00 99 1015.3
20260510114048 47 27 0.0 0.0 0.00 0.00 0.00 99 1015.3
20260510113542 47 27 0.0 0.0 0.00 0.00 0.00 99 1015.0
20260510113041 47 27 0.0 0.0 0.00 0.00 0.00 99 1015.0
20260510112537 47 27 0.0 0.0 0.00 0.00 0.00 99 1014.9
20260510112033 47 27 0.0 0.0 0.00 0.00 0.00 99 1015.0
20260510111530 46 27 0.0 0.0 0.00 0.00 0.00 99 1014.8
20260510111026 46 27 0.0 0.0 0.00 0.00 0.00 99 1014.6
20260510110522 46 27 0.0 0.0 0.00 0.00 0.00 99 1014.5
20260510110019 46 27 0.0 0.0 0.00 0.00 0.00 99 1014.3
20260510105514 46 27 0.0 0.0 0.00 0.00 0.00 99 1014.5
20260510105009 46 27 0.0 0.0 0.00 0.00 0.00 99 1014.2
20260510104506 46 27 0.0 0.0 0.00 0.00 0.00 99 1014.3
20260510104002 45 27 0.0 0.0 0.00 0.00 0.00 99 1014.3
20260510103500 46 27 0.0 0.0 0.00 0.00 0.00 99 1014.2
20260510102955 46 27 0.0 0.0 0.00 0.00 0.00 99 1014.3
20260510102451 46 27 0.0 0.0 0.00 0.00 0.00 99 1014.3
20260510101948 46 27 0.0 0.0 0.00 0.00 0.00 99 1014.2
20260510101446 46 27 0.0 0.0 0.00 0.00 0.00 99 1014.4
20260510100944 46 27 0.0 0.0 0.00 0.00 0.00 99 1014.0
20260510100440 46 27 0.0 0.0 0.00 0.00 0.00 99 1013.9
20260510095937 46 27 0.0 0.0 0.00 0.00 0.00 99 1013.8
20260510095432 46 27 0.0 0.0 0.00 0.00 0.00 99 1013.9
20260510094931 46 27 0.0 0.0 0.00 0.00 0.00 99 1013.7
20260510094426 46 27 0.0 0.0 0.00 0.00 0.00 99 1013.7
20260510093922 46 27 0.0 0.0 0.00 0.00 0.00 99 1013.4
20260510093418 46 27 0.0 0.0 0.00 0.00 0.00 99 1013.4
20260510092915 46 27 0.0 0.0 0.00 0.00 0.00 99 1013.5
20260510092413 46 27 0.0 0.0 0.00 0.00 0.00 99 1013.6
20260510091906 46 27 0.0 0.0 0.00 0.00 0.00 99 1013.5
20260510091404 47 27 0.0 0.0 0.00 0.00 0.00 99 1013.3
20260510090900 47 27 0.0 0.0 0.00 0.00 0.00 99 1013.5
20260510090357 47 27 0.0 0.0 0.00 0.00 0.00 99 1013.2
20260510085852 47 27 0.0 0.0 0.00 0.00 0.00 99 1013.3
20260510085348 47 27 0.0 0.0 0.00 0.00 0.00 99 1013.1
20260510084843 47 27 0.0 0.0 0.00 0.00 0.00 99 1013.2
20260510084341 47 27 0.0 0.0 0.00 0.00 0.00 99 1013.2
20260510083837 47 27 0.0 0.0 0.00 0.00 0.00 99 1013.3
20260510083334 48 27 0.0 0.0 0.00 0.00 0.00 99 1013.3
20260510082830 47 27 0.0 0.0 0.00 0.00 0.00 99 1013.1
20260510082327 47 27 0.0 0.0 0.00 0.00 0.00 99 1013.2
20260510081826 47 27 0.0 0.0 0.00 0.00 0.00 99 1013.1
20260510081322 48 27 0.0 0.0 0.00 0.00 0.00 99 1013.2
20260510080818 48 27 0.0 0.0 0.00 0.00 0.00 99 1013.1
20260510080313 48 27 0.0 0.9 0.00 0.00 0.00 98 1013.0
20260510075811 48 27 0.0 0.0 0.00 0.00 0.00 98 1012.9
20260510075308 48 27 0.0 0.0 0.00 0.00 0.00 98 1012.7
20260510074804 47 27 0.0 0.0 0.00 0.00 0.00 98 1013.0
20260510074301 48 27 0.0 0.0 0.00 0.00 0.00 98 1013.0
20260510073757 48 27 0.0 0.0 0.00 0.00 0.00 98 1012.9
20260510073253 48 27 0.0 0.0 0.00 0.00 0.00 98 1012.9
20260510072749 48 27 0.0 0.0 0.00 0.00 0.00 98 1012.9
20260510072246 48 27 0.0 0.0 0.00 0.00 0.00 98 1013.0
20260510071742 48 27 0.0 0.0 0.00 0.00 0.00 98 1013.1
20260510071239 48 27 0.0 0.0 0.00 0.00 0.00 98 1012.8
20260510070738 48 27 0.0 0.0 0.00 0.00 0.00 98 1013.1
20260510070235 49 27 0.0 0.0 0.00 0.00 0.00 98 1012.7
20260510065734 49 27 0.0 0.0 0.00 0.00 0.00 98 1012.8
20260510065231 49 27 0.0 0.0 0.00 0.00 0.00 98 1012.7
20260510064728 49 27 0.0 0.0 0.00 0.00 0.00 98 1012.9
20260510064226 49 27 0.0 0.0 0.00 0.00 0.00 98 1012.9
20260510063722 49 27 0.0 0.0 0.00 0.00 0.00 98 1013.0
20260510063218 49 27 0.0 0.0 0.00 0.00 0.00 98 1013.1
20260510062715 49 27 0.0 0.0 0.00 0.00 0.00 98 1012.9
20260510062211 50 27 0.0 0.0 0.00 0.00 0.00 98 1013.0
20260510061706 50 27 0.0 0.0 0.00 0.00 0.00 98 1013.1
20260510061204 50 27 0.0 0.0 0.00 0.00 0.00 98 1013.1
20260510060700 50 27 0.0 0.0 0.00 0.00 0.00 98 1013.1
20260510060157 50 27 0.0 0.0 0.00 0.00 0.00 98 1013.0
20260510055653 50 27 0.0 0.9 0.00 0.00 0.00 98 1013.2
20260510055151 50 27 0.0 0.0 0.00 0.00 0.00 98 1013.1
20260510054646 50 27 0.9 0.9 0.00 0.00 0.00 98 1013.0
20260510054143 50 27 0.0 0.0 0.00 0.00 0.00 97 1012.9
20260510053641 50 27 0.0 0.0 0.00 0.00 0.00 97 1013.2
20260510053138 51 27 0.9 0.9 0.00 0.00 0.00 97 1013.1
20260510052634 51 27 0.0 0.0 0.00 0.00 0.00 98 1013.4
20260510052131 51 28 0.0 0.9 0.00 0.00 0.00 97 1013.3
20260510051626 51 28 0.0 0.9 0.00 0.00 0.00 98 1013.3
20260510051123 51 28 0.0 0.0 0.00 0.00 0.00 97 1013.5
20260510050621 51 28 0.0 0.0 0.00 0.00 0.00 97 1013.3
20260510050118 50 28 0.0 0.9 0.00 0.00 0.00 97 1013.2
20260510045615 51 27 0.0 1.7 0.00 0.00 0.00 97 1013.4
20260510045111 51 27 0.0 0.0 0.00 0.00 0.00 97 1013.3
20260510044607 51 27 0.9 1.7 0.00 0.00 0.00 97 1013.4
20260510044105 51 28 0.0 0.0 0.00 0.00 0.00 97 1013.5
20260510043600 50 28 0.0 0.0 0.00 0.00 0.00 97 1013.3
20260510043056 50 28 0.0 0.9 0.00 0.00 0.00 97 1013.3
20260510042555 51 6 0.0 0.9 0.00 0.00 0.00 97 1013.3
20260510042050 51 6 0.0 0.9 0.00 0.00 0.00 97 1013.2
20260510041548 50 7 0.0 0.0 0.00 0.00 0.00 97 1013.1
20260510041045 50 7 0.0 0.0 0.00 0.00 0.00 97 1013.2
20260510040542 50 7 0.0 0.0 0.00 0.00 0.00 97 1013.1
20260510040038 51 7 0.0 0.0 0.00 0.00 0.00 97 1013.1
20260510035534 50 7 0.0 0.0 0.00 0.00 0.00 97 1013.0
20260510035033 50 7 0.0 0.0 0.00 0.00 0.00 97 1013.1
20260510034532 50 7 0.0 0.0 0.00 0.00 0.00 97 1013.1
20260510034029 50 7 0.9 1.7 0.00 0.00 0.00 97 1013.0
20260510033524 51 7 0.9 1.7 0.00 0.00 0.00 96 1013.0
20260510033023 51 7 0.9 0.9 0.00 0.00 0.00 96 1013.0
20260510032519 51 7 0.0 0.0 0.00 0.00 0.00 96 1012.9
20260510032014 51 7 0.0 0.0 0.00 0.00 0.00 96 1012.8
20260510031510 51 7 0.0 0.0 0.00 0.00 0.00 96 1012.8
20260510031006 51 7 0.0 0.0 0.00 0.00 0.00 96 1012.5
20260510030501 51 7 0.0 0.0 0.00 0.00 0.00 96 1012.7
20260510025959 51 7 0.0 0.0 0.00 0.00 0.00 96 1012.5
20260510025456 51 7 0.0 0.0 0.00 0.00 0.00 95 1012.4
20260510024953 51 7 0.0 0.0 0.00 0.00 0.00 95 1012.6
20260510024449 51 7 0.0 0.0 0.00 0.00 0.00 95 1012.2
20260510023945 52 7 0.0 0.0 0.00 0.00 0.00 95 1012.6
20260510023442 52 7 0.0 0.9 0.00 0.00 0.00 95 1012.8
20260510022939 52 7 0.0 0.0 0.00 0.00 0.00 95 1012.5
20260510022438 52 7 0.9 0.9 0.00 0.00 0.00 95 1012.6
20260510021937 52 7 0.0 1.7 0.00 0.00 0.00 95 1012.5
20260510021435 52 7 0.0 0.0 0.00 0.00 0.00 94 1012.2
20260510020932 52 7 0.9 1.7 0.00 0.00 0.00 94 1012.0
20260510020426 53 7 0.9 1.7 0.00 0.00 0.00 93 1012.2
20260510015922 53 7 0.0 1.7 0.00 0.00 0.00 93 1012.1
20260510015419 53 7 0.0 0.9 0.00 0.00 0.00 93 1011.9
20260510014914 53 7 0.0 0.0 0.00 0.00 0.00 93 1011.9
20260510014412 53 7 0.0 0.0 0.00 0.00 0.00 93 1011.8
20260510013908 53 7 0.0 0.9 0.00 0.00 0.00 93 1011.6
20260510013403 54 7 0.9 0.9 0.00 0.00 0.00 93 1011.5
20260510012858 54 7 0.0 0.0 0.00 0.00 0.00 93 1011.5
20260510012353 54 7 0.0 0.0 0.00 0.00 0.00 92 1011.5
20260510011848 54 7 0.0 0.0 0.00 0.00 0.00 92 1011.2
20260510011344 55 7 0.0 0.0 0.00 0.00 0.00 92 1011.5
20260510010840 55 7 0.0 0.0 0.00 0.00 0.00 91 1011.4
20260510010338 55 7 0.0 0.0 0.00 0.00 0.00 91 1011.2
20260510005834 55 7 0.0 0.0 0.00 0.00 0.00 90 1011.4
20260510005330 56 7 0.0 0.0 0.00 0.00 0.00 89 1011.2
20260510004828 56 7 0.0 0.0 0.00 0.00 0.00 88 1011.1
20260510004326 57 7 0.0 0.0 0.00 0.00 0.00 87 1011.1
20260510003823 58 7 0.9 1.7 0.00 0.00 0.00 86 1010.9
20260510003320 58 7 0.9 1.7 0.00 0.00 0.00 86 1010.8
20260510002818 58 8 0.0 1.7 0.00 0.00 0.00 85 1010.8
20260510002316 59 8 0.0 1.7 0.00 0.00 0.00 83 1010.9
20260510001812 60 8 0.0 0.9 0.00 0.00 0.00 82 1010.8
20260510001311 60 8 0.9 0.9 0.00 0.00 0.00 81 1010.8
20260510000806 61 27 0.9 0.9 0.00 0.00 0.00 80 1010.8
20260510000304 61 27 0.9 2.6 0.00 0.00 0.00 80 1010.6
20260509235801 62 252 0.0 2.6 0.00 0.00 0.00 77 1010.6
20260509235257 64 236 0.9 0.9 0.00 0.00 0.00 74 1010.6
20260509234753 65 236 0.0 0.9 0.00 0.00 0.00 71 1010.3
20260509234250 65 236 0.9 1.7 0.00 0.00 0.00 70 1010.3
20260509233749 67 214 0.9 1.7 0.00 0.00 0.00 68 1010.3
20260509233246 69 157 0.0 0.9 0.00 0.00 0.00 60 1010.3
20260509232741 70 132 0.0 0.9 0.00 0.00 0.00 58 1010.3
20260509232239 70 133 0.0 0.9 0.00 0.00 0.00 57 1010.2
20260509231735 71 146 0.0 1.7 0.00 0.00 0.00 52 1010.3
20260509231232 70 40 0.0 0.0 0.00 0.00 0.00 54 1010.4
20260509230730 70 45 0.0 0.9 0.00 0.00 0.00 53 1010.1
20260509230227 70 46 0.0 2.6 0.00 0.00 0.00 54 1010.2
20260509225722 71 281 0.0 1.7 0.00 0.00 0.00 52 1010.1
20260509225217 71 274 0.0 1.7 0.00 0.00 0.00 54 1010.2
20260509224714 70 263 3.5 3.5 0.00 0.00 0.00 55 1010.4
20260509224211 70 250 3.5 6.1 0.00 0.00 0.00 57 1010.3
20260509223708 71 238 0.0 3.5 0.00 0.00 0.00 54 1010.3
20260509223205 71 302 1.7 3.5 0.00 0.00 0.00 51 1010.4
20260509222702 71 216 1.7 3.5 0.00 0.00 0.00 53 1010.4
20260509222157 70 354 0.9 1.7 0.00 0.00 0.00 53 1010.4
20260509221653 69 335 0.0 0.0 0.00 0.00 0.00 56 1010.8
20260509221149 69 302 0.9 5.2 0.00 0.00 0.00 55 1010.7
20260509220646 70 314 0.9 2.6 0.00 0.00 0.00 51 1010.6
20260509220142 70 60 0.9 2.6 0.00 0.00 0.00 52 1010.7
20260509215638 70 282 4.3 8.7 0.00 0.00 0.00 53 1010.6
20260509215134 71 65 1.7 6.1 0.00 0.00 0.00 51 1010.8
20260509214632 71 223 1.7 5.2 0.00 0.00 0.00 53 1010.6
20260509214128 71 350 0.0 1.7 0.00 0.00 0.00 52 1010.6
20260509213625 69 216 0.0 3.5 0.00 0.00 0.00 58 1010.7
20260509213115 70 63 1.7 6.1 0.00 0.00 0.00 54 1010.7
20260509212613 71 220 1.7 6.1 0.00 0.00 0.00 53 1010.7
20260509212109 72 127 0.9 3.5 0.00 0.00 0.00 52 1010.6
20260509211605 71 2 3.5 8.7 0.00 0.00 0.00 52 1010.7
20260509211102 69 93 0.9 3.5 0.00 0.00 0.00 57 1010.5
20260509210559 70 127 1.7 3.5 0.00 0.00 0.00 56 1010.8
20260509210056 69 246 0.9 3.5 0.00 0.00 0.00 59 1010.9
20260509205555 68 252 0.9 1.7 0.00 0.00 0.00 60 1010.7
20260509205051 69 210 0.9 2.6 0.00 0.00 0.00 59 1010.7
20260509204548 69 323 0.0 3.5 0.00 0.00 0.00 58 1010.8
20260509204044 68 213 1.7 2.6 0.00 0.00 0.00 60 1010.7
20260509203540 68 327 2.6 3.5 0.00 0.00 0.00 58 1010.7
20260509203039 70 53 0.9 5.2 0.00 0.00 0.00 58 1010.5
20260509202539 71 325 4.3 6.1 0.00 0.00 0.00 53 1010.5
20260509202034 70 317 1.7 3.5 0.00 0.00 0.00 57 1010.8
20260509201529 69 101 1.7 3.5 0.00 0.00 0.00 57 1010.7
20260509201028 68 35 0.0 0.9 0.00 0.00 0.00 61 1010.7
20260509200527 68 145 1.7 3.5 0.00 0.00 0.00 58 1011.0
20260509200024 67 184 0.9 1.7 0.00 0.00 0.00 59 1011.0
20260509195520 68 217 1.7 1.7 0.00 0.00 0.00 58 1011.0
20260509195019 68 73 3.5 5.2 0.00 0.00 0.00 58 1011.0
20260509194514 69 273 0.9 1.7 0.00 0.00 0.00 60 1011.2
20260509194012 68 307 2.6 3.5 0.00 0.00 0.00 58 1011.1
20260509193512 66 269 0.9 0.9 0.00 0.00 0.00 63 1011.1
20260509193009 66 62 2.6 7.0 0.00 0.00 0.00 60 1011.0
20260509192506 66 228 0.0 2.6 0.00 0.00 0.00 60 1011.1
20260509192000 66 242 1.7 5.2 0.00 0.00 0.00 62 1011.3
20260509191455 66 283 1.7 2.6 0.00 0.00 0.00 60 1011.3
20260509190951 66 256 0.9 1.7 0.00 0.00 0.00 61 1011.0
20260509190449 66 244 0.9 1.7 0.00 0.00 0.00 62 1011.1
20260509185947 66 176 2.6 5.2 0.00 0.00 0.00 59 1011.2
20260509185444 66 38 0.9 2.6 0.00 0.00 0.00 60 1011.1
20260509184941 66 276 2.6 5.2 0.00 0.00 0.00 59 1011.1
20260509184439 66 69 0.9 2.6 0.00 0.00 0.00 60 1011.0
20260509183935 66 280 3.5 3.5 0.00 0.00 0.00 58 1011.1
20260509183435 66 230 5.2 7.0 0.00 0.00 0.00 60 1011.1
20260509182931 66 335 0.0 2.6 0.00 0.00 0.00 58 1011.2
20260509182428 66 238 0.9 8.7 0.00 0.00 0.00 61 1011.2
20260509181925 65 50 3.5 7.0 0.00 0.00 0.00 60 1011.5
20260509181423 65 65 0.9 6.1 0.00 0.00 0.00 58 1011.3
20260509180920 65 245 4.3 6.1 0.00 0.00 0.00 59 1011.3
20260509180415 67 249 3.5 3.5 0.00 0.00 0.00 57 1011.0
20260509175913 67 13 1.7 7.0 0.00 0.00 0.00 57 1011.2
20260509175409 67 255 2.6 3.5 0.00 0.00 0.00 56 1011.3
20260509174905 65 73 0.0 3.5 0.00 0.00 0.00 59 1011.2
20260509174401 64 250 0.9 2.6 0.00 0.00 0.00 56 1011.3
20260509173858 65 58 2.6 6.1 0.00 0.00 0.00 56 1011.4
20260509173357 64 105 0.0 0.0 0.00 0.00 0.00 58 1011.5
20260509172854 64 224 0.9 2.6 0.00 0.00 0.00 57 1011.6
20260509172351 64 197 0.0 2.6 0.00 0.00 0.00 59 1011.6
20260509171847 64 204 1.7 2.6 0.00 0.00 0.00 59 1011.5
20260509171343 64 359 1.7 1.7 0.00 0.00 0.00 59 1011.7
20260509170839 63 64 0.0 0.0 0.00 0.00 0.00 59 1011.7
20260509170335 62 70 0.0 2.6 0.00 0.00 0.00 59 1011.8
20260509165830 63 74 0.9 1.7 0.00 0.00 0.00 60 1011.9
20260509165324 63 127 0.9 1.7 0.00 0.00 0.00 59 1011.8
20260509164821 63 209 0.0 5.2 0.00 0.00 0.00 59 1011.8